Stations météo

réclame
Mon MeteoGroup
St. James's Park, Grande-Bretagne (3770): Température de l'air & dewpoint: 11.10.2017 19:00:00 - 17.10.2017 19:00:00 (BST)St. James's Park, Grande-Bretagne (3770): Température de l'air -20cm & Température de l'air -100cm: 11.10.2017 19:00:00 - 17.10.2017 19:00:00 (BST)St. James's Park, Grande-Bretagne (3770): Quantités de précipitations: 11.10.2017 19:00:00 - 17.10.2017 19:00:00 (BST)
Date & Time tt [°C] td [°C] tt -20cm [°C] tt -100cm [°C] rr [mm]
17.10.2017 19:00:00 12,9 7,6 - - 0,0
17.10.2017 18:00:00 13,6 7,4 - - 0,0
17.10.2017 17:00:00 13,9 7,2 - - 0,0
17.10.2017 16:00:00 14,2 6,5 - - 0,0
17.10.2017 15:00:00 14,4 7,2 - - 0,0
17.10.2017 14:00:00 14,3 7,5 - - 0,0
17.10.2017 13:00:00 14,2 7,3 - - 0,0
17.10.2017 12:00:00 14,5 7,0 - - 0,0
17.10.2017 11:00:00 14,4 8,4 - - 0,0
17.10.2017 10:00:00 13,1 7,7 15,2 - 0,0
17.10.2017 09:00:00 12,3 7,5 - - 0,0
17.10.2017 08:00:00 11,5 7,2 - - 0,0
17.10.2017 07:00:00 11,8 7,3 - - 0,0
17.10.2017 06:00:00 12,0 7,6 - - 0,0
17.10.2017 05:00:00 12,0 7,7 - - 0,0
17.10.2017 04:00:00 12,5 7,5 - - 0,0
17.10.2017 03:00:00 13,1 8,4 - - 0,0
17.10.2017 02:00:00 13,4 8,1 - - 0,0
17.10.2017 01:00:00 13,7 7,7 - - 0,0
17.10.2017 00:00:00 14,3 7,9 - - 0,0
16.10.2017 23:00:00 14,7 8,2 - - 0,0
16.10.2017 22:00:00 15,1 8,6 - - 0,0
16.10.2017 21:00:00 15,1 9,1 - - 0,0
16.10.2017 20:00:00 15,4 9,1 - - 0,0
16.10.2017 19:00:00 16,1 9,8 - - 0,0
16.10.2017 18:00:00 16,8 10,5 - - 0,0
16.10.2017 17:00:00 17,5 10,1 - - 0,0
16.10.2017 16:00:00 18,9 13,3 - - 0,0
16.10.2017 15:00:00 20,1 14,8 - - 0,0
16.10.2017 14:00:00 21,3 15,2 - - 0,0
16.10.2017 13:00:00 22,0 14,9 - - 0,0
16.10.2017 12:00:00 22,6 15,2 - - 0,0
16.10.2017 11:00:00 21,6 15,1 - - 0,0
16.10.2017 10:00:00 19,0 16,7 15,5 - 0,0
16.10.2017 09:00:00 16,4 15,9 - - 0,0
16.10.2017 08:00:00 15,4 15,1 - - 0,0
16.10.2017 07:00:00 15,6 15,4 - - 0,0
16.10.2017 06:00:00 15,1 14,9 - - 0,0
16.10.2017 05:00:00 14,2 13,9 - - 0,0
16.10.2017 04:00:00 14,2 13,9 - - 0,0
16.10.2017 03:00:00 14,1 13,7 - - 0,0
16.10.2017 02:00:00 14,2 13,3 - - 0,0
16.10.2017 01:00:00 15,2 14,3 - - 0,0
16.10.2017 00:00:00 15,6 14,2 - - 0,0
15.10.2017 23:00:00 15,1 13,7 - - 0,0
15.10.2017 22:00:00 13,5 12,6 - - 0,0
15.10.2017 21:00:00 13,7 12,3 - - 0,0
15.10.2017 20:00:00 15,3 12,9 - - 0,0
15.10.2017 19:00:00 16,0 13,0 - - 0,0
15.10.2017 18:00:00 17,0 13,0 - - 0,0
15.10.2017 17:00:00 18,3 13,1 - - 0,0
15.10.2017 16:00:00 19,5 13,3 - - 0,0
15.10.2017 15:00:00 19,6 13,2 - - 0,0
15.10.2017 14:00:00 20,1 14,1 - - 0,0
15.10.2017 13:00:00 19,7 13,9 - - 0,0
15.10.2017 12:00:00 18,1 14,4 - - 0,0
15.10.2017 11:00:00 16,8 14,4 - - 0,0
15.10.2017 10:00:00 16,1 14,1 15,5 - 0,0
15.10.2017 09:00:00 15,1 13,7 - - 0,0
15.10.2017 08:00:00 15,0 13,7 - - 0,0
15.10.2017 07:00:00 14,2 14,0 - - 0,0
15.10.2017 06:00:00 12,6 12,4 - - 0,0
15.10.2017 05:00:00 12,6 12,4 - - 0,0
15.10.2017 04:00:00 12,1 11,9 - - 0,0
15.10.2017 03:00:00 12,0 11,7 - - 0,0
15.10.2017 02:00:00 12,2 11,9 - - 0,0
15.10.2017 01:00:00 12,4 12,0 - - 0,0
15.10.2017 00:00:00 12,9 12,2 - - 0,0
14.10.2017 23:00:00 13,6 12,5 - - 0,0
14.10.2017 22:00:00 14,9 13,7 - - 0,0
14.10.2017 21:00:00 15,9 14,1 - - 0,0
14.10.2017 20:00:00 16,7 12,4 - - 0,0
14.10.2017 19:00:00 17,9 13,1 - - 0,0
14.10.2017 18:00:00 18,3 13,1 - - 0,0
14.10.2017 17:00:00 19,0 13,1 - - 0,0
14.10.2017 16:00:00 19,2 13,2 - - 0,0
14.10.2017 15:00:00 19,5 14,0 - - 0,0
14.10.2017 14:00:00 19,5 14,6 - - 0,0
14.10.2017 13:00:00 19,9 15,0 - - 0,0
14.10.2017 12:00:00 19,0 14,5 - - 0,0
14.10.2017 11:00:00 18,7 15,0 - - 0,0
14.10.2017 10:00:00 17,3 14,6 15,5 - 0,0
14.10.2017 09:00:00 16,6 14,5 - - 0,0
14.10.2017 08:00:00 16,0 14,1 - - 0,0
14.10.2017 07:00:00 16,3 14,1 - - 0,0
14.10.2017 06:00:00 16,5 14,1 - - 0,0
14.10.2017 05:00:00 16,5 14,2 - - 0,0
14.10.2017 04:00:00 16,5 14,0 - - 0,0
14.10.2017 03:00:00 16,3 14,0 - - 0,0
14.10.2017 02:00:00 16,5 14,1 - - 0,0
14.10.2017 01:00:00 16,7 14,2 - - 0,0
14.10.2017 00:00:00 16,6 14,1 - - 0,0
13.10.2017 23:00:00 16,7 14,1 - - 0,0
13.10.2017 22:00:00 16,8 14,1 - - 0,0
13.10.2017 21:00:00 16,9 14,0 - - 0,0
13.10.2017 20:00:00 17,0 13,9 - - 0,0
13.10.2017 19:00:00 17,8 14,1 - - 0,0
13.10.2017 18:00:00 17,9 14,3 - - 0,0
13.10.2017 17:00:00 18,3 14,6 - - 0,0
13.10.2017 16:00:00 18,6 14,7 - - 0,0
13.10.2017 15:00:00 18,8 14,8 - - 0,0
13.10.2017 14:00:00 18,6 15,1 - - 0,0
13.10.2017 13:00:00 18,9 15,4 - - 0,0
13.10.2017 12:00:00 18,4 15,2 - - 0,0
13.10.2017 11:00:00 17,9 15,1 - - 0,0
13.10.2017 10:00:00 17,3 15,2 15,0 16,0 0,0
13.10.2017 09:00:00 16,3 14,9 - - 0,0
13.10.2017 08:00:00 15,8 14,3 - - 0,0
13.10.2017 07:00:00 15,1 13,4 - - 0,0
13.10.2017 06:00:00 14,7 12,9 - - 0,0
13.10.2017 05:00:00 14,2 12,6 - - 0,0
13.10.2017 04:00:00 13,4 12,2 - - 0,0
13.10.2017 03:00:00 12,4 11,7 - - 0,0
13.10.2017 02:00:00 11,7 10,5 - - 0,0
13.10.2017 01:00:00 12,1 10,8 - - 0,0
13.10.2017 00:00:00 11,9 10,3 - - 0,0
12.10.2017 23:00:00 12,0 10,1 - - 0,0
12.10.2017 22:00:00 12,8 9,9 - - 0,0
12.10.2017 21:00:00 13,7 9,3 - - 0,0
12.10.2017 20:00:00 13,9 8,7 - - 0,0
12.10.2017 19:00:00 15,0 8,9 - - 0,0
12.10.2017 18:00:00 15,9 9,2 - - 0,0
12.10.2017 17:00:00 16,8 9,1 - - 0,0
12.10.2017 16:00:00 17,3 9,2 - - 0,0
12.10.2017 15:00:00 17,1 8,0 - - 0,0
12.10.2017 14:00:00 17,9 9,5 - - 0,0
12.10.2017 13:00:00 16,8 10,0 - - 0,0
12.10.2017 12:00:00 15,6 10,4 - - 0,0
12.10.2017 11:00:00 14,4 10,5 - - 0,0
12.10.2017 10:00:00 13,2 10,2 15,0 16,0 0,0
12.10.2017 09:00:00 11,6 9,9 - - 0,0
12.10.2017 08:00:00 10,6 9,2 - - 0,0
12.10.2017 07:00:00 10,4 9,4 - - 0,0
12.10.2017 06:00:00 9,9 8,9 - - 0,0
12.10.2017 05:00:00 10,4 9,1 - - 0,0
12.10.2017 04:00:00 10,5 9,3 - - 0,2
12.10.2017 03:00:00 10,7 9,2 - - 0,0
12.10.2017 02:00:00 11,4 9,7 - - 0,0
12.10.2017 01:00:00 11,7 9,7 - - 0,0
12.10.2017 00:00:00 12,1 9,4 - - 0,0
11.10.2017 23:00:00 12,8 10,1 - - 0,0
11.10.2017 22:00:00 12,8 10,2 - - 0,0
11.10.2017 21:00:00 13,9 10,5 - - 0,8
11.10.2017 20:00:00 15,8 13,8 - - 0,0
11.10.2017 19:00:00 15,6 13,6 - - 0,0

tt = Température de l'air
td = dewpoint
tt -20cm = Température de l'air -20cm
tt -100cm = Température de l'air -100cm
rr = Quantités de précipitations

stations d'obs. à proximité